Location: Cahas Mountain Overlook
(37.0833°N, 80.1000°W)
Time: 19:04:20
(UTC-04:00)

Explorer 7 - Pass Details

Date: 17 February 2026
Orbit: 430 x 541 km, 50.2° (Epoch: 13 March)

Event Time Altitude Azimuth Distance (km) Brightness Sun altitude
Rises 21:30:41 0° 309° (NW) 2,577 11.0 -41.7°
Enters shadow 21:30:58 - 309° (NW) 2,460 10.9 -41.8°
Reaches altitude 10° 21:32:50 10° 311° (NW) 1,712 - -42.1°
Maximum altitude 21:36:44 78° 37° (NE) 532 - -42.9°
Drops below altitude 10° 21:40:45 10° 124° (SE) 1,765 - -43.6°
Sets 21:43:00 0° 126° (SE) 2,666 - -44.0°
